SCP
0 0 0 0 0 0 0 0 0 0 0 0 0 0 0 -0 -0 0 0 -0 -0 -1 -0 -0 -0 -0 -0 -0 -0 -0 -0 -0 -0 -0 -0 -0 -0 -0 -0 -0 -0 -0 -0
0 0 0 0 0 0 0 0 0 0 0 0 -0 0 -0 -0 0 0 0 -0 -1 -1 -0 -0 -0 -0 -0 -0 -0 -0 -0 -0 -0 -0 -0 -0 -0 -0 -0 -0 -0 -0 -0
0 0 0 0 0 0 0 0 0 0 0 0 -0 0 0 -0 0 0 0 0 -0 -1 -1 -1 -0 -0 -0 -0 -0 -0 -0 -0 -0 -0 -0 -0 0 -0 -0 -0 -0 -0 -0
0 -0 -0 0 0 0 0 0 0 0 0 0 0 0 0 0 0 0 0 -0 -0 0 -0 -0 -0 -0 -0 -0 -0 -0 -0 -0 -0 -0 -0 -0 -0 -0 -0 0 -0 -0 -0
-0 0 0 0 0 0 0 0 0 0 0 0 0 0 0 0 0 0 0 -0 -0 -0 0 0 -0 -0 -0 -0 -0 -0 -0 -0 -0 -0 -0 -0 -0 0 0 0 0 -0 0
-0 0 0 0 0 0 0 0 0 0 0 0 0 0 0 0 0 0 0 0 0 0 0 0 -0 -0 -0 -0 -0 -0 -0 -0 -0 -0 -0 -0 -0 -0 -0 -0 0 0 0
-0 -0 0 0 0 0 0 0 0 -0 -0 0 0 0 0 0 0 -0 0 0 0 0 0 0 0 -0 -0 -0 -0 -0 -0 -0 -0 -0 -0 -0 -0 -0 -0 -0 -0 -0 -0
0 0 0 0 0 0 0 0 -0 -0 0 0 -0 0 0 0 -0 -0 0 -0 0 0 0 0 0 0 0 0 0 -0 -0 -0 -0 -0 -0 -0 -0 -0 -0 -0 -0 -0 -0
0 0 0 -0 0 0 0 0 -0 -0 0 0 -0 0 0 0 0 0 0 0 0 0 0 0 0 -0 0 0 0 0 -0 -0 -0 -0 -0 -0 -0 -0 -0 -0 -0 -0 -0
0 0 0 0 0 0 0 0 0 0 0 0 0 0 0 0 0 0 0 0 0 0 0 0 0 0 -0 0 0 0 0 0 0 -0 -0 -0 -0 -0 0 -0 0 0 0
0 0 0 0 0 0 0 0 0 0 -0 0 0 0 0 0 0 0 0 0 0 0 0 0 -0 0 0 0 -0 0 -0 0 -0 -0 0 -0 0 0 -0 0 -0 0 0
0 0 0 0 0 0 0 0 0 0 0 0 0 0 0 0 0 0 0 0 0 0 -0 -0 -0 -0 -0 0 0 -0 -0 -0 -0 -0 -0 -0 0 0 -0 -0 -0 -0 -0
0 0 0 0 0 0 0 0 0 0 0 0 0 0 0 0 0 0 0 0 0 0 0 0 -0 -0 -0 -0 0 0 0 -0 -0 -0 -0 -0 -0 -0 -0 -0 -0 -0 0
0 0 0 0 0 0 0 0 0 0 0 0 0 0 0 0 0 0 0 -0 0 0 0 0 0 -0 -0 0 0 0 0 0 0 0 0 0 -0 0 -0 -0 -0 -0 0
0 0 0 0 0 0 0 0 0 0 0 0 0 0 0 0 0 0 0 0 -0 0 0 0 0 0 0 0 0 0 0 0 0 0 0 0 0 0 0 0 0 0 0
0 0 0 0 0 0 0 0 0 0 0 0 0 0 0 0 0 0 0 0 0 0 0 0 0 0 0 0 0 0 0 0 0 0 0 0 0 0 0 0 0 0 0
0 0 0 0 0 0 0 0 0 0 0 0 0 0 0 0 0 0 0 0 0 0 0 0 0 0 0 0 0 0 0 0 0 0 -0 0 0 0 0 0 0 0 0
0 0 0 0 0 0 0 0 0 0 0 0 0 0 0 0 0 0 0 0 0 0 0 0 0 0 0 0 0 0 0 0 0 0 0 0 0 0 0 0 0 0 0
1 0 0 0 0 0 0 0 0 0 0 0 0 0 0 0 0 0 0 0 0 0 0 0 0 0 -0 0 0 0 0 0 0 0 0 0 0 0 0 0 0 0 0
1 0 0 0 0 0 0 0 0 0 0 0 0 0 0 0 0 0 0 0 0 0 0 0 0 0 0 0 0 0 0 0 0 0 0 0 0 0 0 0 0 0 0
0 0 0 0 0 0 0 0 0 0 0 0 0 0 0 0 0 0 0 0 0 0 0 0 0 0 0 0 0 0 0 0 0 0 0 0 0 0 0 0 0 0 0
0 0 0 -0 0 0 0 0 0 0 0 0 0 0 0 0 0 0 0 0 0 0 0 0 0 0 0 0 0 0 0 0 0 0 0 0 0 0 0 0 0 0 0
0 0 0 0 0 0 0 0 0 0 0 0 0 0 0 0 0 0 0 0 0 0 0 0 0 0 0 0 0 0 0 0 0 0 0 0 0 0 0 0 0 0 0
0 0 0 0 0 0 0 0 0 0 0 0 0 0 0 0 0 0 0 0 0 0 0 0 0 0 0 0 0 0 0 0 0 0 0 0 0 0 0 0 0 0 0
0 0 0 0 0 0 0 0 0 0 0 0 0 0 0 0 0 0 0 0 0 0 0 0 0 -0 -0 -0 0 0 0 0 0 0 0 0 0 0 0 0 0 0 0
0 0 0 0 0 0 0 0 0 0 0 0 0 0 0 0 0 0 0 0 0 0 0 0 -0 -0 -0 -0 -0 0 0 0 0 0 0 0 0 0 0 0 0 0 0
Wind_Speed_500mb
11 11 9 11 7 18 17 19 21 20 21 20 18 29 27 28 28 25 31 34 33 39 33 29 29 32 33 32 34 34 34 36 36 37 36 31 27 24 25 34 38 38 34
11 20 13 7 5 10 18 23 23 30 24 25 26 24 27 38 33 30 36 42 47 43 43 40 40 41 42 40 37 37 38 37 37 38 38 37 34 27 27 35 46 40 33
23 13 15 12 13 5 12 12 16 18 17 17 23 23 17 26 33 45 42 44 53 53 53 58 52 50 49 47 44 40 41 40 39 39 38 38 35 30 21 29 44 39 36
10 11 7 11 2 6 9 13 18 16 13 11 5 11 14 17 25 32 35 42 35 37 41 52 55 54 55 55 51 48 43 41 42 42 41 40 38 34 27 32 37 38 38
10 5 2 11 15 9 11 20 11 13 14 10 16 7 9 18 14 20 25 24 35 33 36 48 52 54 51 54 59 55 50 48 45 44 44 43 41 39 37 36 37 41 40
2 4 2 6 7 14 9 20 18 14 18 21 13 18 21 20 24 30 24 31 34 40 40 23 65 51 54 52 54 60 57 55 52 52 47 48 46 44 44 43 40 41 41
7 5 6 4 9 9 8 10 10 7 13 24 16 18 15 22 5 19 17 12 23 35 32 23 31 45 48 51 51 58 62 59 58 57 56 53 52 50 49 49 49 46 46
13 13 7 4 6 6 7 6 8 9 13 16 17 17 14 10 26 30 34 36 36 40 34 17 19 37 39 39 47 47 52 58 60 58 59 59 53 50 49 53 53 54 52
12 9 2 9 8 3 9 11 11 7 3 11 24 20 11 14 27 24 32 39 41 40 35 20 15 19 31 37 39 44 45 41 47 63 63 59 62 57 58 58 58 58 58
12 6 3 5 8 3 5 10 14 12 7 5 2 14 18 26 18 22 27 33 32 35 31 36 23 11 9 24 43 46 41 47 53 45 50 59 62 63 61 63 65 63 63
15 7 4 10 6 4 10 14 15 21 21 17 12 5 9 15 25 25 31 31 24 27 27 35 38 24 10 15 31 48 55 27 50 49 46 48 61 68 68 69 66 72 72
19 9 10 12 5 8 10 17 18 18 25 21 19 18 16 28 28 25 23 20 25 32 23 29 38 40 34 11 7 12 13 48 40 35 45 43 63 66 70 71 75 78 77
22 8 8 8 8 9 13 10 7 10 16 24 20 17 7 15 16 16 22 23 24 28 18 25 40 39 36 27 14 5 6 13 20 26 30 30 36 48 54 57 67 76 85
25 15 5 7 8 15 8 3 5 10 13 16 13 15 3 9 6 9 20 26 23 15 18 26 22 29 35 26 14 16 15 7 6 12 18 22 30 39 45 50 55 63 69
35 15 10 11 7 4 2 4 5 7 16 10 10 12 7 6 4 4 3 12 20 15 14 20 24 27 20 13 9 13 15 12 10 9 9 8 12 16 20 31 45 55 63
31 19 19 16 11 6 2 9 12 13 15 6 10 14 17 13 10 5 4 5 10 15 14 27 24 28 20 10 15 19 14 13 9 10 14 10 20 18 22 26 28 35 44
30 24 23 22 13 7 6 10 10 10 10 9 12 14 14 14 11 6 4 10 12 14 15 21 20 27 19 16 17 19 21 20 9 9 8 4 13 15 21 24 26 27 29
31 23 24 25 14 9 5 4 6 5 6 9 14 16 20 22 20 21 19 20 16 9 14 20 22 22 24 28 31 30 22 19 20 14 6 8 11 15 17 24 27 18 24
29 21 21 19 8 7 7 6 3 4 7 12 18 21 23 22 22 22 23 23 23 18 16 10 9 17 25 31 28 24 22 16 11 22 23 20 15 13 11 15 17 19 27
37 27 17 13 8 3 4 5 5 6 10 15 18 22 22 22 23 25 26 27 27 27 28 20 21 26 31 34 38 37 30 29 20 10 5 12 20 22 23 21 12 13 21
27 22 17 18 4 4 3 4 5 12 14 15 17 24 28 29 28 28 28 28 28 30 37 36 35 34 38 47 54 50 42 35 25 33 29 24 26 24 20 24 28 26 26
25 30 27 14 3 2 5 2 9 12 11 10 13 18 25 27 30 29 28 28 28 30 36 44 42 32 31 37 42 51 52 51 48 41 41 41 39 42 34 26 36 42 42
46 30 21 15 11 8 11 8 11 11 12 13 10 18 22 29 31 31 31 32 36 36 39 39 44 29 32 30 34 36 39 43 43 51 42 43 51 48 44 36 24 25 33
26 26 21 16 12 14 16 11 9 12 14 22 19 21 18 26 36 34 31 31 33 37 42 36 22 22 29 34 37 35 34 35 44 53 44 48 50 52 51 30 44 44 38
28 22 19 15 15 20 18 11 10 16 18 13 14 12 14 26 36 31 29 27 28 31 36 30 23 24 24 32 41 33 30 30 47 56 45 46 51 55 59 49 58 57 52
22 21 17 15 18 17 16 13 12 3 5 5 9 8 9 26 28 26 27 29 31 31 32 24 25 26 25 37 39 35 34 37 46 54 47 51 49 50 59 47 59 57 61
Wind_Direction_500mb
268 330 283 238 277 315 312 302 302 312 305 269 259 247 250 239 238 233 245 253 250 256 255 253 245 243 231 221 219 217 213 211 211 213 217 220 225 236 244 230 216 213 208
306 315 316 350 333 340 324 293 309 322 318 277 261 251 247 246 252 244 244 257 253 253 262 256 256 237 234 230 225 223 221 220 217 219 221 225 233 242 252 232 210 211 212
303 288 323 336 341 274 302 312 323 338 333 285 251 244 258 240 246 256 257 262 260 262 267 263 261 243 233 231 232 228 223 222 223 223 225 228 229 234 234 198 199 203 209
300 252 308 303 305 333 37 338 322 334 358 6 292 268 293 293 269 266 269 265 271 267 271 266 257 249 238 232 227 227 228 226 224 225 224 225 228 227 221 204 204 209 210
315 296 241 334 322 5 2 341 12 7 3 11 14 6 325 315 327 321 314 278 283 271 285 271 262 249 246 238 230 225 229 233 234 230 228 224 224 226 223 217 214 215 214
327 71 302 44 40 11 341 338 339 356 1 333 340 356 347 324 320 316 300 288 294 256 312 309 242 243 241 241 237 230 228 233 237 236 235 231 224 223 225 224 219 219 218
267 252 289 36 53 320 334 341 348 22 48 37 1 5 60 65 328 352 40 7 340 331 318 308 244 244 235 237 238 236 231 230 236 238 236 235 232 228 226 228 227 224 221
255 268 280 310 29 24 349 348 356 25 70 36 16 19 46 101 28 21 18 24 14 360 347 317 296 243 241 229 235 239 238 235 235 238 238 235 234 233 234 234 232 230 228
228 199 235 26 159 55 315 324 338 312 53 57 74 50 23 4 353 6 14 8 7 4 7 360 337 303 244 223 233 234 240 244 240 240 241 241 239 240 239 239 236 236 233
153 156 90 61 169 270 359 48 46 31 9 58 130 92 64 43 356 1 358 7 6 359 11 22 13 351 249 245 241 239 239 241 235 236 238 244 241 241 241 235 239 241 240
159 171 306 164 196 39 49 52 56 44 31 37 39 104 106 52 42 18 10 1 24 19 12 34 40 26 335 285 251 236 230 247 235 241 240 236 241 238 243 238 239 237 241
173 199 158 142 121 47 59 68 48 27 13 20 23 45 50 38 30 22 360 345 6 31 34 31 39 34 28 2 339 258 214 237 238 265 250 252 244 242 242 239 237 241 242
179 169 155 128 62 80 72 85 49 13 4 356 2 30 67 57 22 27 12 359 353 43 53 43 33 29 24 22 28 342 287 252 255 258 254 261 252 247 247 247 246 247 244
186 186 223 167 95 76 87 63 311 343 347 358 350 9 238 359 341 13 20 10 351 12 38 55 23 30 20 25 25 40 47 49 351 297 279 283 272 260 256 256 260 262 259
194 204 197 148 136 52 75 252 314 319 344 337 319 352 13 18 258 290 338 11 3 352 350 341 350 2 23 31 41 350 342 340 348 336 320 327 350 342 314 292 280 272 268
190 206 178 170 197 218 245 295 299 316 326 344 330 360 13 19 4 333 298 284 318 331 340 345 28 10 4 11 338 321 312 309 251 261 295 275 332 333 341 331 306 292 287
196 206 176 196 216 241 306 289 275 313 346 357 356 22 31 35 43 33 9 350 7 8 15 32 40 13 343 338 322 314 309 308 275 285 199 141 296 299 310 316 318 317 304
201 198 195 206 223 267 300 335 270 328 7 27 42 47 60 57 55 49 42 38 43 46 16 30 34 6 333 331 326 326 319 287 264 262 263 215 249 285 304 298 288 311 326
190 189 202 206 226 273 337 18 32 20 37 61 68 60 54 49 50 50 48 42 40 29 11 357 352 333 336 337 347 352 346 349 294 259 266 268 273 285 310 340 291 265 274
181 181 218 232 218 278 337 23 35 60 73 82 71 54 50 45 45 46 43 40 37 32 29 20 5 5 11 15 13 9 15 22 33 35 330 313 283 280 272 274 270 288 290
139 186 186 234 218 5 325 48 85 104 88 79 64 50 47 43 38 34 35 34 29 26 23 22 17 17 21 22 21 15 14 26 39 23 12 354 345 323 295 268 266 277 286
180 196 209 220 211 235 223 169 108 98 90 80 69 56 46 38 37 32 25 19 18 13 11 11 8 7 17 17 17 12 10 12 13 10 352 350 348 348 338 312 292 292 290
181 196 206 202 215 210 196 146 118 102 94 81 60 49 46 39 31 25 23 22 20 12 9 359 352 356 1 1 352 352 356 2 2 359 339 341 348 353 360 358 348 312 309
176 188 192 195 205 187 162 144 103 90 85 69 69 48 38 31 22 15 17 25 32 26 14 359 355 17 353 348 333 325 327 334 343 352 346 340 355 359 2 10 11 10 1
188 193 189 194 185 164 153 158 153 133 73 66 36 19 14 17 13 12 16 20 22 18 25 28 19 3 352 352 337 328 324 311 333 340 347 339 347 340 345 356 1 358 357
195 194 194 188 164 160 170 175 169 202 80 65 75 27 5 1 2 2 5 354 351 351 359 10 3 346 332 338 343 324 316 314 327 327 337 323 323 328 320 338 344 350 347
Wind_Speed_850mb
11 11 9 11 7 18 17 19 21 20 21 20 18 29 27 28 28 25 31 34 33 39 33 29 29 32 33 32 34 34 34 36 36 37 36 31 27 24 25 34 38 38 34
11 20 13 7 5 10 18 23 23 30 24 25 26 24 27 38 33 30 36 42 47 43 43 40 40 41 42 40 37 37 38 37 37 38 38 37 34 27 27 35 46 40 33
23 13 15 12 13 5 12 12 16 18 17 17 23 23 17 26 33 45 42 44 53 53 53 58 52 50 49 47 44 40 41 40 39 39 38 38 35 30 21 29 44 39 36
10 11 7 11 2 6 9 13 18 16 13 11 5 11 14 17 25 32 35 42 35 37 41 52 55 54 55 55 51 48 43 41 42 42 41 40 38 34 27 32 37 38 38
10 5 2 11 15 9 11 20 11 13 14 10 16 7 9 18 14 20 25 24 35 33 36 48 52 54 51 54 59 55 50 48 45 44 44 43 41 39 37 36 37 41 40
2 4 2 6 7 14 9 20 18 14 18 21 13 18 21 20 24 30 24 31 34 40 40 23 65 51 54 52 54 60 57 55 52 52 47 48 46 44 44 43 40 41 41
7 5 6 4 9 9 8 10 10 7 13 24 16 18 15 22 5 19 17 12 23 35 32 23 31 45 48 51 51 58 62 59 58 57 56 53 52 50 49 49 49 46 46
13 13 7 4 6 6 7 6 8 9 13 16 17 17 14 10 26 30 34 36 36 40 34 17 19 37 39 39 47 47 52 58 60 58 59 59 53 50 49 53 53 54 52
12 9 2 9 8 3 9 11 11 7 3 11 24 20 11 14 27 24 32 39 41 40 35 20 15 19 31 37 39 44 45 41 47 63 63 59 62 57 58 58 58 58 58
12 6 3 5 8 3 5 10 14 12 7 5 2 14 18 26 18 22 27 33 32 35 31 36 23 11 9 24 43 46 41 47 53 45 50 59 62 63 61 63 65 63 63
15 7 4 10 6 4 10 14 15 21 21 17 12 5 9 15 25 25 31 31 24 27 27 35 38 24 10 15 31 48 55 27 50 49 46 48 61 68 68 69 66 72 72
19 9 10 12 5 8 10 17 18 18 25 21 19 18 16 28 28 25 23 20 25 32 23 29 38 40 34 11 7 12 13 48 40 35 45 43 63 66 70 71 75 78 77
22 8 8 8 8 9 13 10 7 10 16 24 20 17 7 15 16 16 22 23 24 28 18 25 40 39 36 27 14 5 6 13 20 26 30 30 36 48 54 57 67 76 85
25 15 5 7 8 15 8 3 5 10 13 16 13 15 3 9 6 9 20 26 23 15 18 26 22 29 35 26 14 16 15 7 6 12 18 22 30 39 45 50 55 63 69
35 15 10 11 7 4 2 4 5 7 16 10 10 12 7 6 4 4 3 12 20 15 14 20 24 27 20 13 9 13 15 12 10 9 9 8 12 16 20 31 45 55 63
31 19 19 16 11 6 2 9 12 13 15 6 10 14 17 13 10 5 4 5 10 15 14 27 24 28 20 10 15 19 14 13 9 10 14 10 20 18 22 26 28 35 44
30 24 23 22 13 7 6 10 10 10 10 9 12 14 14 14 11 6 4 10 12 14 15 21 20 27 19 16 17 19 21 20 9 9 8 4 13 15 21 24 26 27 29
31 23 24 25 14 9 5 4 6 5 6 9 14 16 20 22 20 21 19 20 16 9 14 20 22 22 24 28 31 30 22 19 20 14 6 8 11 15 17 24 27 18 24
29 21 21 19 8 7 7 6 3 4 7 12 18 21 23 22 22 22 23 23 23 18 16 10 9 17 25 31 28 24 22 16 11 22 23 20 15 13 11 15 17 19 27
37 27 17 13 8 3 4 5 5 6 10 15 18 22 22 22 23 25 26 27 27 27 28 20 21 26 31 34 38 37 30 29 20 10 5 12 20 22 23 21 12 13 21
27 22 17 18 4 4 3 4 5 12 14 15 17 24 28 29 28 28 28 28 28 30 37 36 35 34 38 47 54 50 42 35 25 33 29 24 26 24 20 24 28 26 26
25 30 27 14 3 2 5 2 9 12 11 10 13 18 25 27 30 29 28 28 28 30 36 44 42 32 31 37 42 51 52 51 48 41 41 41 39 42 34 26 36 42 42
46 30 21 15 11 8 11 8 11 11 12 13 10 18 22 29 31 31 31 32 36 36 39 39 44 29 32 30 34 36 39 43 43 51 42 43 51 48 44 36 24 25 33
26 26 21 16 12 14 16 11 9 12 14 22 19 21 18 26 36 34 31 31 33 37 42 36 22 22 29 34 37 35 34 35 44 53 44 48 50 52 51 30 44 44 38
28 22 19 15 15 20 18 11 10 16 18 13 14 12 14 26 36 31 29 27 28 31 36 30 23 24 24 32 41 33 30 30 47 56 45 46 51 55 59 49 58 57 52
22 21 17 15 18 17 16 13 12 3 5 5 9 8 9 26 28 26 27 29 31 31 32 24 25 26 25 37 39 35 34 37 46 54 47 51 49 50 59 47 59 57 61
Wind_Direction_850mb
268 330 283 238 277 315 312 302 302 312 305 269 259 247 250 239 238 233 245 253 250 256 255 253 245 243 231 221 219 217 213 211 211 213 217 220 225 236 244 230 216 213 208
306 315 316 350 333 340 324 293 309 322 318 277 261 251 247 246 252 244 244 257 253 253 262 256 256 237 234 230 225 223 221 220 217 219 221 225 233 242 252 232 210 211 212
303 288 323 336 341 274 302 312 323 338 333 285 251 244 258 240 246 256 257 262 260 262 267 263 261 243 233 231 232 228 223 222 223 223 225 228 229 234 234 198 199 203 209
300 252 308 303 305 333 37 338 322 334 358 6 292 268 293 293 269 266 269 265 271 267 271 266 257 249 238 232 227 227 228 226 224 225 224 225 228 227 221 204 204 209 210
315 296 241 334 322 5 2 341 12 7 3 11 14 6 325 315 327 321 314 278 283 271 285 271 262 249 246 238 230 225 229 233 234 230 228 224 224 226 223 217 214 215 214
327 71 302 44 40 11 341 338 339 356 1 333 340 356 347 324 320 316 300 288 294 256 312 309 242 243 241 241 237 230 228 233 237 236 235 231 224 223 225 224 219 219 218
267 252 289 36 53 320 334 341 348 22 48 37 1 5 60 65 328 352 40 7 340 331 318 308 244 244 235 237 238 236 231 230 236 238 236 235 232 228 226 228 227 224 221
255 268 280 310 29 24 349 348 356 25 70 36 16 19 46 101 28 21 18 24 14 360 347 317 296 243 241 229 235 239 238 235 235 238 238 235 234 233 234 234 232 230 228
228 199 235 26 159 55 315 324 338 312 53 57 74 50 23 4 353 6 14 8 7 4 7 360 337 303 244 223 233 234 240 244 240 240 241 241 239 240 239 239 236 236 233
153 156 90 61 169 270 359 48 46 31 9 58 130 92 64 43 356 1 358 7 6 359 11 22 13 351 249 245 241 239 239 241 235 236 238 244 241 241 241 235 239 241 240
159 171 306 164 196 39 49 52 56 44 31 37 39 104 106 52 42 18 10 1 24 19 12 34 40 26 335 285 251 236 230 247 235 241 240 236 241 238 243 238 239 237 241
173 199 158 142 121 47 59 68 48 27 13 20 23 45 50 38 30 22 360 345 6 31 34 31 39 34 28 2 339 258 214 237 238 265 250 252 244 242 242 239 237 241 242
179 169 155 128 62 80 72 85 49 13 4 356 2 30 67 57 22 27 12 359 353 43 53 43 33 29 24 22 28 342 287 252 255 258 254 261 252 247 247 247 246 247 244
186 186 223 167 95 76 87 63 311 343 347 358 350 9 238 359 341 13 20 10 351 12 38 55 23 30 20 25 25 40 47 49 351 297 279 283 272 260 256 256 260 262 259
194 204 197 148 136 52 75 252 314 319 344 337 319 352 13 18 258 290 338 11 3 352 350 341 350 2 23 31 41 350 342 340 348 336 320 327 350 342 314 292 280 272 268
190 206 178 170 197 218 245 295 299 316 326 344 330 360 13 19 4 333 298 284 318 331 340 345 28 10 4 11 338 321 312 309 251 261 295 275 332 333 341 331 306 292 287
196 206 176 196 216 241 306 289 275 313 346 357 356 22 31 35 43 33 9 350 7 8 15 32 40 13 343 338 322 314 309 308 275 285 199 141 296 299 310 316 318 317 304
201 198 195 206 223 267 300 335 270 328 7 27 42 47 60 57 55 49 42 38 43 46 16 30 34 6 333 331 326 326 319 287 264 262 263 215 249 285 304 298 288 311 326
190 189 202 206 226 273 337 18 32 20 37 61 68 60 54 49 50 50 48 42 40 29 11 357 352 333 336 337 347 352 346 349 294 259 266 268 273 285 310 340 291 265 274
181 181 218 232 218 278 337 23 35 60 73 82 71 54 50 45 45 46 43 40 37 32 29 20 5 5 11 15 13 9 15 22 33 35 330 313 283 280 272 274 270 288 290
139 186 186 234 218 5 325 48 85 104 88 79 64 50 47 43 38 34 35 34 29 26 23 22 17 17 21 22 21 15 14 26 39 23 12 354 345 323 295 268 266 277 286
180 196 209 220 211 235 223 169 108 98 90 80 69 56 46 38 37 32 25 19 18 13 11 11 8 7 17 17 17 12 10 12 13 10 352 350 348 348 338 312 292 292 290
181 196 206 202 215 210 196 146 118 102 94 81 60 49 46 39 31 25 23 22 20 12 9 359 352 356 1 1 352 352 356 2 2 359 339 341 348 353 360 358 348 312 309
176 188 192 195 205 187 162 144 103 90 85 69 69 48 38 31 22 15 17 25 32 26 14 359 355 17 353 348 333 325 327 334 343 352 346 340 355 359 2 10 11 10 1
188 193 189 194 185 164 153 158 153 133 73 66 36 19 14 17 13 12 16 20 22 18 25 28 19 3 352 352 337 328 324 311 333 340 347 339 347 340 345 356 1 358 357
195 194 194 188 164 160 170 175 169 202 80 65 75 27 5 1 2 2 5 354 351 351 359 10 3 346 332 338 343 324 316 314 327 327 337 323 323 328 320 338 344 350 347